DECAYED

STARLINK-2312, 47980 (Decayed)

Orbit data source: Space-Track

STARLINK-2312, 47980 was a payload satellite owned by SpaceX/Seattle (US) in LEO that was launched on Wed, 24 Mar 2021 UTC via an FALCON 9 launch vehicle from the Air Force Eastern Test Range (AFETR). Payload-class satellites include a variety of spacecraft equipped with specific instruments for various scientific and technological missions. These include communications satellites like Starlink; space stations such as the ISS; scientific satellites like the Hubble; Earth observation satellites from companies like Planet Labs, Umbra, and HawkEye 360; GPS; miniature CubeSats for education and research; and military/defense satellites.

Not visible in the next 10 days
Identifier
47980, 2021-024D
Orbit
Decayed
Country
Flag of USUS
Related business
Manufacturer
SpaceX/Seattle
Mission
Decayed Commercial Communications
Bus & Motor
STARLINK, Unknown motor
Mass
260 kg wet, ~248 kg dry
Launch date (UTC)
2021-03-24 (5 years ago)
Launch vehicle
FALCON 9
Launch site
Air Force Eastern Test Range (AFETR)
Object type
Payload
Rocket body
Debris
Shape & HBR
Box + 1 Pan, 10.1 m
Radar Cross Section
13.562 m², Large (>1 m²)

Expand to show TLE details & history
Last TLE update: 10 months ago

TLE from 10 months ago
0 STARLINK-2312
1 47980U 21024D   25050.28875438  .15086484  12500-4  75555-3 0  9992
2 47980  53.0254 131.6211 0004153 326.5442 142.8457 16.42854918218003
Epoch: 2025-02-19T06:55Z
TLE epoch observation values (Epoch: 2025-02-19T06:55:48.378Z)
Latitude
49.04519°
Longitude
-1.40447°
Altitude
165.925 km
Speed
7.812 km/s
True Right ascension
16h 48m 06s
True Declination
48° 51' 34"
Sunlit
Object was in daylight at epoch
Visualization orbit readout
Latitude
Unknown
Longitude
Unknown
Altitude
Unknown
Speed
Unknown
Apparent Right ascension
Unknown
Apparent Declination
Unknown
Sunlit
N/A
Visualization observer readout
Local Sidereal Time
07:28:04
Azimuth
Unknown
Elevation
Unknown
Doppler factor
Unknown
Orbital elements
Apogee altitude
161.225 km
Perigee altitude
155.796 km
Semi-major axis
6,536.647 km
Eccentricity
0.00042
Inclination
53.0254°
RAAN
131.6211°
Arg. of periapsis
326.5442°
True anomaly
142.87443°
Mean anomaly
142.8457°
Eccentric anomaly
142.86007°
Mean motion
4.10687 °/min
Orbital period
87.66 mins
BSTAR
0.00075555
Loading maneuver chart data...
Computing Atmospheric mass density...

Documentation

Showing up to 5 results
|